sat.trackr.live / text

‹ back to catalog

STARLINK-2697

NORAD 48474 · 2021-040AY

PAYLOAD ACTIVE UNKNOWN

§ Identity

Operator
Country
US
Launch date
2021-05-09
Launch site
AFETR
Launch vehicle
Mass (kg)
RCS (m²)

Purposes: comms

External: N2YO · Heavens-Above · Gunter

§ Orbital elements

Epoch: 2026-09-19T23:40:18.871392Z

Period
94.01 min
Inclination
53.1572°
Eccentricity
0.0001072
Mean motion
15.31710525 rev/d
Perigee alt
470.0 km
Apogee alt
471.4 km
Semi-major
6,848.8 km
B*
7.4467e-5
RAAN
7.5264°
Arg perigee
68.2596°
Mean anomaly
291.8519°
Rev number
29,625

§ Raw data

STARLINK-26971 48474U 21040AY  26262.98632953  .00001947  00000+0  74467-4 0  99992 48474  53.1572   7.5264 0001072  68.2596 291.8519 15.31710525296251

JSON: /api/v1/satellites/48474 · /tle

For live sub-satellite position, see the globe view (requires WebGL).

§ Visibility from observer

Set your observer location to see the next 7 days of passes ≥ 10°. The values pass through the URL so the page stays shareable.

No JS? Fill the form by hand. The geolocation button needs JavaScript.